Glencoe, MN

5:55 AM CDT on June 24, 2017 (GMT -0500)
Glencoe Municipal

Weather History for KGYL - July, 2013

Change the Weather History Date:

Friday, July 19, 2013

  Actual Average (KHCD) Record (KHCD)
Temperature  
Mean Temperature 76 °F -  
Max Temperature 83 °F 85 °F 97 °F (1977)
Min Temperature 69 °F 63 °F 50 °F (2005)
Cooling Degree Days 11    
Growing Degree Days 26 (Base 50)    
Moisture  
Dew Point 61 °F    
Average Humidity 58    
Maximum Humidity 79    
Minimum Humidity 38    
Precipitation  
Precipitation 0.04 in - - ()
Sea Level Pressure  
Sea Level Pressure 29.85 in    
Wind  
Wind Speed 8 mph (West)    
Max Wind Speed 15 mph    
Max Gust Speed 21 mph    
Visibility 10 miles    
Events Thunderstorm    
Averages and records for this station are not official NWS values.
T = Trace of Precipitation, MM = Missing Value Source: NWS Daily Summary

Daily Weather History Graph

Daily Weather History Graph

Search for Another Location

Airport or City:

Trip Planner

Search our weather history database for the weather conditions in past years. The results will help you decide how hot, cold, wet, or windy it might be!

Date:

Astronomy

Jul. 19, 2013 Rise Set
Actual Time 5:48 AM CDT 8:55 PM CDT
Civil Twilight 5:13 AM CDT 9:30 PM CDT
Nautical Twilight 4:28 AM CDT 10:16 PM CDT
Astronomical Twilight 3:33 AM CDT 11:10 PM CDT
Moon 5:58 PM CDT (7/19) 2:31 AM CDT (7/19)
Length of Visible Light 16h 17m
Length of Day
15h 07m
Waxing Gibbous, 87% of the Moon is Illuminated
Jul 19
Waxing Gibbous
Jul 22
Full
Jul 29
Last Quarter
Aug 6
New
Aug 14
First Quarter

Hourly Weather History & Observations

Time (CDT) Temp. Heat Index Dew Point Humidity Pressure Visibility Wind Dir Wind Speed Gust Speed Precip Events Conditions
12:14 AM 81.1 °F 83.7 °F 67.5 °F 63% 29.78 in 10.0 mi SSW 9.2 mph - N/A   Clear
12:35 AM 81.5 °F 84.1 °F 67.3 °F 62% 29.78 in 10.0 mi SSW 8.1 mph 16.1 mph N/A   Scattered Clouds
12:54 AM 81.9 °F 84.4 °F 67.3 °F 61% 29.77 in 10.0 mi SSW 10.4 mph - N/A   Scattered Clouds
1:14 AM 82.4 °F 85.0 °F 67.3 °F 60% 29.77 in 10.0 mi SW 5.8 mph - N/A   Overcast
1:34 AM 82.0 °F 84.5 °F 67.1 °F 60% 29.77 in 10.0 mi SW 6.9 mph - N/A   Mostly Cloudy
1:54 AM 80.2 °F 83.0 °F 68.5 °F 67% 29.78 in 10.0 mi WSW 8.1 mph - 0.04 in Thunderstorm Mostly Cloudy
2:14 AM 80.2 °F 82.7 °F 67.6 °F 65% 29.77 in 10.0 mi WSW 11.5 mph 19.6 mph N/A   Scattered Clouds
2:34 AM 79.5 °F - 66.7 °F 65% 29.77 in 10.0 mi WSW 6.9 mph - N/A   Clear
2:54 AM 79.5 °F - 66.6 °F 64% 29.77 in 10.0 mi WSW 4.6 mph - N/A   Clear
3:14 AM 79.0 °F - 67.3 °F 67% 29.76 in 10.0 mi WSW 6.9 mph - N/A   Clear
3:34 AM 78.8 °F - 67.5 °F 68% 29.76 in 10.0 mi WSW 5.8 mph - N/A   Clear
3:54 AM 77.9 °F - 67.6 °F 71% 29.76 in 10.0 mi WSW 4.6 mph - N/A   Clear
4:14 AM 77.4 °F - 67.5 °F 71% 29.76 in 10.0 mi WSW 4.6 mph - N/A   Clear
4:34 AM 76.5 °F - 67.5 °F 74% 29.76 in 10.0 mi SW 4.6 mph - N/A   Scattered Clouds
4:55 AM 75.6 °F - 67.5 °F 76% 29.77 in 10.0 mi SW 3.5 mph - N/A   Clear
5:14 AM 75.4 °F - 67.5 °F 76% 29.77 in 10.0 mi SW 4.6 mph - N/A   Scattered Clouds
5:34 AM 75.4 °F - 67.5 °F 76% 29.78 in 10.0 mi SW 4.6 mph - N/A   Mostly Cloudy
5:54 AM 75.2 °F - 67.6 °F 77% 29.80 in 10.0 mi WSW 5.8 mph - N/A   Mostly Cloudy
6:14 AM 74.8 °F - 67.5 °F 78% 29.80 in 10.0 mi WSW 5.8 mph - N/A   Scattered Clouds
6:34 AM 74.3 °F - 67.3 °F 79% 29.81 in 10.0 mi WSW 4.6 mph - N/A   Clear
6:54 AM 75.2 °F - 66.7 °F 75% 29.81 in 10.0 mi WSW 5.8 mph - N/A   Clear
7:14 AM 75.6 °F - 66.6 °F 74% 29.81 in 10.0 mi West 5.8 mph - N/A   Clear
7:35 AM 76.1 °F - 65.5 °F 70% 29.81 in 10.0 mi West 10.4 mph 16.1 mph N/A   Clear
7:54 AM 76.3 °F - 64.2 °F 66% 29.82 in 10.0 mi WNW 12.7 mph 18.4 mph N/A   Clear
8:14 AM 76.5 °F - 62.6 °F 62% 29.83 in 10.0 mi WNW 13.8 mph 19.6 mph N/A   Clear
8:34 AM 76.5 °F - 62.1 °F 61% 29.83 in 10.0 mi WNW 15.0 mph 19.6 mph N/A   Clear
8:54 AM 77.0 °F - 62.4 °F 61% 29.84 in 10.0 mi WNW 10.4 mph 17.3 mph N/A   Clear
9:14 AM 77.0 °F - 61.5 °F 59% 29.85 in 10.0 mi NW 13.8 mph - N/A   Clear
9:34 AM 77.2 °F - 60.6 °F 56% 29.85 in 10.0 mi WNW 12.7 mph 17.3 mph N/A   Clear
9:54 AM 77.4 °F - 59.2 °F 53% 29.86 in 10.0 mi WNW 12.7 mph - N/A   Clear
10:14 AM 77.9 °F - 59.5 °F 53% 29.86 in 10.0 mi NW 11.5 mph 17.3 mph N/A   Clear
10:34 AM 78.3 °F - 60.1 °F 53% 29.87 in 10.0 mi West 11.5 mph 19.6 mph N/A   Clear
10:54 AM 78.6 °F - 61.0 °F 55% 29.87 in 10.0 mi WNW 12.7 mph - N/A   Scattered Clouds
11:14 AM 78.1 °F - 60.8 °F 55% 29.88 in 10.0 mi WNW 12.7 mph 19.6 mph N/A   Scattered Clouds
11:34 AM 78.1 °F - 60.6 °F 55% 29.89 in 10.0 mi WNW 12.7 mph 18.4 mph N/A   Scattered Clouds
11:54 AM 78.8 °F - 60.4 °F 53% 29.89 in 10.0 mi WNW 13.8 mph 18.4 mph N/A   Scattered Clouds
12:14 PM 79.2 °F - 58.5 °F 49% 29.89 in 10.0 mi NW 10.4 mph 19.6 mph N/A   Clear
12:34 PM 79.7 °F - 57.2 °F 46% 29.90 in 10.0 mi WNW 12.7 mph 20.7 mph N/A   Clear
12:54 PM 79.9 °F - 56.3 °F 44% 29.90 in 10.0 mi WNW 13.8 mph 17.3 mph N/A   Clear
1:15 PM 80.2 °F 80.6 °F 57.7 °F 46% 29.90 in 10.0 mi WNW 9.2 mph - N/A   Clear
1:34 PM 80.8 °F 81.0 °F 57.4 °F 45% 29.90 in 10.0 mi WNW 9.2 mph 17.3 mph N/A   Clear
1:54 PM 80.8 °F 81.0 °F 57.7 °F 45% 29.90 in 10.0 mi NW 12.7 mph 17.3 mph N/A   Clear
2:14 PM 81.5 °F 80.9 °F 54.3 °F 39% 29.89 in 10.0 mi NNW 13.8 mph 18.4 mph N/A   Clear
2:34 PM 80.8 °F 80.7 °F 55.6 °F 42% 29.90 in 10.0 mi WNW 9.2 mph 17.3 mph N/A   Clear
2:54 PM 81.9 °F 81.4 °F 56.3 °F 41% 29.90 in 10.0 mi WNW 9.2 mph - N/A   Clear
3:14 PM 82.4 °F 81.9 °F 56.3 °F 41% 29.89 in 10.0 mi WNW 11.5 mph 17.3 mph N/A   Clear
3:34 PM 82.4 °F 81.6 °F 54.7 °F 38% 29.89 in 10.0 mi WNW 9.2 mph 12.7 mph N/A   Clear
3:54 PM 82.4 °F 81.7 °F 55.0 °F 39% 29.89 in 10.0 mi NW 9.2 mph - N/A   Clear
4:15 PM 82.4 °F 81.9 °F 56.7 °F 41% 29.89 in 10.0 mi West 8.1 mph - N/A   Clear
4:34 PM 82.0 °F 81.6 °F 55.9 °F 41% 29.89 in 10.0 mi West 13.8 mph 17.3 mph N/A   Scattered Clouds
4:54 PM 82.6 °F 81.8 °F 55.0 °F 39% 29.89 in 10.0 mi NW 12.7 mph 17.3 mph N/A   Scattered Clouds
5:14 PM 82.6 °F 81.7 °F 54.9 °F 38% 29.89 in 10.0 mi West 12.7 mph - N/A   Clear
5:34 PM 82.8 °F 82.1 °F 55.9 °F 40% 29.88 in 10.0 mi NW 10.4 mph - N/A   Clear
5:54 PM 81.9 °F 81.3 °F 55.6 °F 40% 29.88 in 10.0 mi WNW 10.4 mph 17.3 mph N/A   Clear
6:14 PM 81.7 °F 81.2 °F 55.2 °F 40% 29.88 in 10.0 mi WNW 10.4 mph - N/A   Clear
6:34 PM 81.3 °F 81.0 °F 55.6 °F 41% 29.88 in 10.0 mi WNW 13.8 mph 18.4 mph N/A   Clear
6:54 PM 80.6 °F 80.5 °F 55.8 °F 42% 29.88 in 10.0 mi WNW 12.7 mph 16.1 mph N/A   Clear
7:15 PM 80.1 °F 80.4 °F 56.7 °F 45% 29.88 in 10.0 mi WNW 9.2 mph - N/A   Clear
7:34 PM 79.7 °F - 56.5 °F 45% 29.88 in 10.0 mi WNW 6.9 mph - N/A   Clear
7:54 PM 78.8 °F - 58.3 °F 49% 29.88 in 10.0 mi WNW 4.6 mph - N/A   Clear
8:14 PM 77.5 °F - 59.9 °F 54% 29.87 in 10.0 mi WNW 3.5 mph - N/A   Clear
8:34 PM 76.1 °F - 60.8 °F 59% 29.87 in 10.0 mi Calm Calm - N/A   Clear
8:54 PM 74.5 °F - 60.3 °F 61% 29.88 in 10.0 mi Calm Calm - N/A   Clear
9:14 PM 73.2 °F - 61.0 °F 65% 29.88 in 10.0 mi Calm Calm - N/A   Clear
9:34 PM 72.1 °F - 61.7 °F 70% 29.89 in 10.0 mi Calm Calm - N/A   Clear
9:55 PM 71.4 °F - 61.5 °F 71% 29.90 in 10.0 mi Calm Calm - N/A   Clear
10:14 PM 71.6 °F - 61.5 °F 70% 29.91 in 10.0 mi Calm Calm - N/A   Clear
10:34 PM 70.0 °F - 61.3 °F 74% 29.91 in 10.0 mi Calm Calm - N/A   Clear
10:55 PM 70.2 °F - 61.2 °F 73% 29.91 in 10.0 mi WSW 3.5 mph - N/A   Clear
11:14 PM 70.3 °F - 61.2 °F 73% 29.91 in 10.0 mi Calm Calm - N/A Thunderstorm Clear
11:34 PM 71.2 °F - 58.1 °F 63% 29.93 in 10.0 mi North 8.1 mph 20.7 mph N/A   Mostly Cloudy
11:54 PM 69.8 °F - 56.7 °F 63% 29.92 in 10.0 mi North 5.8 mph - N/A   Mostly Cloudy